Ellsworth AFB, SD

9:17 AM MDT on March 29, 2017 (GMT -0600)
Ellsworth Air Force Base

Weather History for KRCA - August, 2013

Change the Weather History Date:

Tuesday, August 27, 2013

  Actual Average Record
Temperature  
Mean Temperature 83 °F -  
Max Temperature 99 °F 83 °F 101 °F (2010)
Min Temperature 67 °F 57 °F 50 °F (2008)
Cooling Degree Days 18    
Growing Degree Days 33 (Base 50)    
Moisture  
Dew Point 57 °F    
Average Humidity 48    
Maximum Humidity 78    
Minimum Humidity 20    
Precipitation  
Precipitation 0.00 in - - ()
Sea Level Pressure  
Sea Level Pressure 29.88 in    
Wind  
Wind Speed 8 mph (West)    
Max Wind Speed 18 mph    
Max Gust Speed 25 mph    
Visibility 10 miles    
Events      
Averages and records for this station are not official NWS values.
T = Trace of Precipitation, MM = Missing Value Source: NWS Daily Summary

Daily Weather History Graph

Daily Weather History Graph

Search for Another Location

Airport or City:

Trip Planner

Search our weather history database for the weather conditions in past years. The results will help you decide how hot, cold, wet, or windy it might be!

Date:

Astronomy

Aug. 27, 2013 Rise Set
Actual Time 6:10 AM MDT 7:36 PM MDT
Civil Twilight 5:39 AM MDT 8:06 PM MDT
Nautical Twilight 5:03 AM MDT 8:43 PM MDT
Astronomical Twilight 4:24 AM MDT 9:21 PM MDT
Moon 11:15 PM MDT (8/27) 1:26 PM MDT (8/27)
Length of Visible Light 14h 26m
Length of Day
13h 26m
Waning Gibbous, 56% of the Moon is Illuminated
Aug 27
Waning Gibbous
Aug 28
Last Quarter
Sep 5
New
Sep 12
First Quarter
Sep 19
Full

Hourly Weather History & Observations

Time (MDT) Temp. Heat Index Dew Point Humidity Pressure Visibility Wind Dir Wind Speed Gust Speed Precip Events Conditions
12:58 AM 71.8 °F - 63.1 °F 74% 29.89 in 10.0 mi NW 2.3 mph - N/A   Clear
1:58 AM 69.1 °F - 61.9 °F 78% 29.87 in 10.0 mi West 9.2 mph - N/A   Clear
2:58 AM 70.9 °F - 57.4 °F 62% 29.88 in 10.0 mi SW 5.8 mph - N/A   Clear
3:58 AM 68.9 °F - 56.5 °F 65% 29.88 in 10.0 mi WNW 3.5 mph - N/A   Clear
4:58 AM 67.5 °F - 55.9 °F 66% 29.89 in 10.0 mi West 5.8 mph - N/A   Clear
5:58 AM 69.1 °F - 54.9 °F 60% 29.90 in 10.0 mi West 5.8 mph - N/A   Clear
6:52 AM 69.8 °F - 53.6 °F 56% 29.99 in 10.0 mi Variable 5.8 mph - N/A   Light Drizzle
6:58 AM 70.5 °F - 54.0 °F 56% 29.90 in 10.0 mi West 5.8 mph - 0.00 in   Light Drizzle
6:59 AM 71.6 °F - 55.4 °F 57% 29.98 in 10.0 mi West 5.8 mph - N/A   Clear
7:58 AM 77.7 °F - 55.2 °F 46% 29.90 in 10.0 mi West 5.8 mph - 0.00 in   Clear
8:58 AM 83.3 °F 82.9 °F 58.3 °F 42% 29.89 in 10.0 mi SE 4.6 mph - N/A   Clear
9:58 AM 88.7 °F 87.1 °F 55.8 °F 33% 29.89 in 10.0 mi South 9.2 mph - N/A   Partly Cloudy
10:58 AM 91.9 °F 89.5 °F 54.0 °F 27% 29.89 in 10.0 mi SSE 9.2 mph - N/A   Clear
11:58 AM 95.0 °F - 52.9 °F 24% 29.87 in 10.0 mi South 9.2 mph - N/A   Partly Cloudy
12:58 PM 96.1 °F 93.8 °F 53.2 °F 24% 29.85 in 10.0 mi SSE 11.5 mph 18.4 mph N/A   Clear
1:58 PM 97.3 °F 95.1 °F 53.2 °F 23% 29.84 in 10.0 mi SE 10.4 mph - N/A   Clear
2:58 PM 98.6 °F - 52.7 °F 21% 29.82 in 10.0 mi SE 9.2 mph - N/A   Clear
3:58 PM 98.8 °F - 52.2 °F 21% 29.81 in 10.0 mi East 11.5 mph - N/A   Clear
4:58 PM 99.3 °F - 51.3 °F 20% 29.79 in 10.0 mi South 12.7 mph - N/A   Partly Cloudy
5:58 PM 96.3 °F 94.7 °F 55.8 °F 26% 29.81 in 10.0 mi NNW 16.1 mph - N/A   Clear
6:58 PM 93.7 °F 91.7 °F 55.0 °F 27% 29.82 in 10.0 mi North 15.0 mph - N/A   Clear
7:58 PM 84.2 °F 86.3 °F 66.0 °F 54% 29.86 in 10.0 mi North 17.3 mph - N/A   Clear
8:58 PM 76.8 °F - 64.0 °F 65% 29.90 in 10.0 mi NNW 18.4 mph 25.3 mph N/A   Clear
9:58 PM 73.9 °F - 64.6 °F 72% 29.92 in 10.0 mi NW 11.5 mph - N/A   Mostly Cloudy
10:58 PM 74.1 °F - 64.2 °F 71% 29.91 in 10.0 mi NNW 16.1 mph - N/A   Mostly Cloudy
11:58 PM 72.1 °F - 64.4 °F 77% 29.90 in 10.0 mi North 13.8 mph - N/A   Scattered Clouds